Regional Weather Roundup
Issued by NWS

Home | Current Version | Previous Version | Graphics & Text | Print | Product List | Glossary On
Versions: 1 2 3 4 5 6 7 8 9 10 11 12 13 14 15 16 17 18 19 20 21 22 23 24 25 26 27 28 29 30 31 32 33 34 35 36 37 38 39 40 41 42 43 44 45 46 47 48 49 50
000
ASUS45 KSLC 251310
RWRUT

UTAH REGIONAL WEATHER ROUNDUP
NATIONAL WEATHER SERVICE SALT LAKE CITY UT
600 AM MST TUE NOV 25 2014

UTZ001>011-023>025-251400-

NORTHERN UTAH

CITY           SKY/WX    TMP DP  RH WIND       PRES   REMARKS
HILL AFB       CLOUDY    33  19  56 S14       30.33F WCI  24
LOGAN          CLOUDY    32  25  75 CALM      30.32S
OGDEN          CLOUDY    35  19  52 SE8       30.34F WCI  29
PROVO AIRPORT  CLOUDY    27  21  80 CALM      30.41F
SALT LAKE CITY CLOUDY    34  20  56 SE12      30.35F WCI  25
VERNAL         MOCLDY    19  12  74 NW3       30.29F
WENDOVER       CLOUDY    28  21  74 CALM      30.33F
HEBER CITY     CLOUDY    21  18  86 NE3       30.35F
WEST JORDAN    CLOUDY    34  23  64 S17G26    30.36  WCI  23

$$

UTZ012>022-026-027-251400-

SOUTHERN/CENTRAL UTAH

CITY           SKY/WX    TMP DP  RH WIND       PRES   REMARKS
BLANDING       MOCLDY    21  10  63 CALM      30.46F
BRYCE CANYON   PTCLDY    11   3  70 CALM      30.39S
CEDAR CITY     PTCLDY    16  10  77 NE5       30.41F WCI   9
DELTA          CLOUDY    24  20  82 CALM      30.42S
MILFORD        CLEAR     22  11  62 S9        30.42R WCI  12
MOAB/CYNLANDS  CLOUDY    23   8  52 CALM      30.37F
PRICE          MOCLDY    19   9  65 N8        30.34S WCI   9
ST GEORGE      MOSUNNY   34   7  32 S3        30.49S
KANAB          PTCLDY    14   1  57 NE6       30.50S WCI   5

$$

REGIONAL REPORTS     COLORADO/ARIZONA

CITY           SKY/WX    TMP DP  RH WIND       PRES   REMARKS
CRAIG, CO      CLOUDY    17  11  77 E3        30.26F
GRAND JUNCTION CLOUDY    25  15  66 SE12      30.38F WCI  14
RIFLE          CLOUDY    16  12  84 SE3       30.38S
MONTROSE       CLOUDY    20  12  71 SW3       30.40F
CORTEZ         MOCLDY    13   8  81 CALM      30.41R
PAGE, AZ       NOT AVBL
GRAND CANYON   MOCLDY     4  -9  55 CALM      30.46S
KINGMAN        CLEAR     30   2  30 SE6       30.44F WCI  24
FLAGSTAFF      PTCLDY    13  -3  49 CALM      30.43S

$$

REGIONAL REPORTS    NEVADA/IDAHO/WYOMING

CITY           SKY/WX    TMP DP  RH WIND       PRES   REMARKS
LAS VEGAS, NV  CLEAR     41  10  28 SW7       30.41S
ELY            CLOUDY    21  20  96 S10       30.45F WCI  10
ELKO           PTCLDY    33  23  66 S5        30.40F WCI  29
POCATELLO, ID  CLOUDY    37  30  75 S21G26    30.21F WCI  26
BURLEY         CLOUDY    40  29  64 S10       30.23S WCI  33
EVANSTON, WY   CLOUDY    21  13  71 SW13      30.24S WCI   9
ROCK SPRINGS   CLOUDY    24  13  62 W26G35    30.13F WCI   8

$$



USA.gov is the U.S. government's official web portal to all federal, state and local government web resources and services.